This is the latest recevied weather packets stored in our database for station/object WX5KDM. If no packets are shown the sender has not sent any weather packets the latest 10 day(s).
| Time | Temp. | Humidity | Pressure | Rain* | Wind** | Luminosity | Snow |
|---|---|---|---|---|---|---|---|
| 1788402150 | 28.89° C | 75% | 1016.5 hPa | 0 mm | - | - | - |
| 1788401845 | 28.89° C | 74% | 1016.5 hPa | 0 mm | - | - | - |
| 1788401539 | 28.89° C | 75% | 1016.5 hPa | 0 mm | - | - | - |
| 1788401234 | 28.89° C | 70% | 1016.4 hPa | 0 mm | - | - | - |
| 1788400929 | 28.89° C | 70% | 1016.4 hPa | 0 mm | - | - | - |
| 1788400624 | 29.44° C | 71% | 1016.3 hPa | 0 mm | - | - | - |
| 1788400320 | 29.44° C | 70% | 1016.1 hPa | 0 mm | - | - | - |
| 1788400020 | 29.44° C | 68% | 1016.2 hPa | 0 mm | - | - | - |
| 1788399713 | 29.44° C | 69% | 1016 hPa | 0 mm | - | - | - |
| 1788399408 | 29.44° C | 70% | 1016 hPa | 0 mm | - | - | - |
| 1788399109 | 29.44° C | 68% | 1016 hPa | 0 mm | - | - | - |
| 1788398807 | 30° C | 68% | 1015.9 hPa | 0 mm | - | - | - |
| 1788398507 | 29.44° C | 68% | 1016.1 hPa | 0 mm | - | - | - |
| 1788398207 | 30° C | 67% | 1015.9 hPa | 0 mm | - | - | - |
| 1788397910 | 30.56° C | 64% | 1015.7 hPa | 0 mm | - | - | - |
| 1788397602 | 30.56° C | 64% | 1015.7 hPa | 0 mm | - | - | - |
| 1788397301 | 30.56° C | 65% | 1015.8 hPa | 0 mm | - | - | - |
| 1788397000 | 30.56° C | 63% | 1015.7 hPa | 0 mm | - | - | - |
| 1788396696 | 31.11° C | 63% | 1015.7 hPa | 0 mm | - | - | - |
| 1788396391 | 31.11° C | 63% | 1015.7 hPa | 0 mm | - | - | - |
| 1788396086 | 31.11° C | 62% | 1015.8 hPa | 0 mm | - | - | - |
| 1788395781 | 31.11° C | 61% | 1015.6 hPa | 0 mm | - | - | - |
| 1788395476 | 31.11° C | 63% | 1015.7 hPa | 0 mm | - | - | - |
| 1788395172 | 31.67° C | 61% | 1015.5 hPa | 0 mm | - | - | - |
| 1788394866 | 32.78° C | 58% | 1015.6 hPa | 0 mm | - | - | - |
* Rain latest hour (hover to see other rain measurements)
** Current wind speed in m/s (hover to see current wind gust speed)